User: anonymous   Login
Location: Churchill
(58.7670°N, 94.1670°W)
Time: 02:22:20
(UTC-05:00)
Language:

Cosmos 2142 Rocket - Orbit

View from above orbital plane
View from above orbital plane
View from above satellite
View from above satellite

Ground track
Ground track

The orbit data is extracted from the following two-line orbital elements,

1 21231U 91029B   16211.85801175  .00000004  00000-0 -11974-4 0  9997
2 21231  82.9532 347.4223 0036068  52.0636  58.4069 13.75717345269462
Epoch (UTC): 29 July 2016 20:35:32
Eccentricity: 0.0036068
inclination: 82.9532°
perigee height: 952 km
apogee height: 1005 km
right ascension of ascending node: 347.4223°
argument of perigee: 52.0636°
revolutions per day: 13.75717345
mean anomaly at epoch: 58.4069°
orbit number at epoch: 26946

The dashed part of the orbit path shows where the satellite is in the earth's shadow,  

DLR